Voltar ao catálogo

STARLINK-31462

AtivoComunicaçõesVLEO
NORAD 59466·PAYLOAD·🇺🇸 United States

Lançado Apr 10, 2024 de Cape Canaveral Space Force Station

Loading…

Próximas Passagens (próximas 24 horas)

TLE

AtualizadoSource: CelesTrak SupGP

Época: Sep 15, 2026, 03:36 UTC

1 59466C 24068M   26258.15048611 -.00018962  00000+0 -68667-3 0  2580
2 59466  43.0030  44.4518 0001476 266.6662 291.7542 15.27593758    13

Acompanhe STARLINK-31462 em tempo real com AllMySat

Download on the App Store